DMSP 5D-2 F14 DEB

基本信息
目录编号:
24778
目录名称:
DMSP 5D-2 F14 DEB
国际标识:
1997-012E
轨道中心:
EARTH
物体状态:
已陨落(2026-06-15)
发射日期:
1997-04-04 UTC
轨道信息
数据来源: 国际轨道数据
星历时间: 2026-06-15T12:36:29+0800
半长轴: 6611.984km
偏心率: 0.0021178
轨道倾角: 98.756°
近地点辐角: 289.257°
升交点赤经: 326.299°
平近点角: 70.642°
近地点: 219.844km
远地点: 247.85km
周期: 89.178分钟
每日圈数: 16.147495
详细信息
发射场:
AFWTR
轨道高度:
LEO
数据来源:
AOE Integration Group
参考系:
TEME
时间系统:
UTC
历元类型:
SGP4
2D轨道图
3D轨道图
轨道高度分析图
轨道倾角分析图
轨道综合分析图
查看轨道综合分析图